When you browse on this site, cookies collect data to enhance your experience and personalize the content and advertising you see.
Visit our Privacy Policy to learn more. By continuing to use the site, you agree to this use of cookies and data.
  • In Netherlands
  • List of Countries
  • For 7 days
  • Water Temperature
  • Satellite Maps
  • Weather Map
  • Weather Widgets
  • user-avatar
    Login

    Hourly Weather Bregenz

    Today, 20 November, Tuesday

    Time Temperature Precipitation Wind Pressure Humidity
    00:00 -7°C° 0 mm 2 mps 635 mmHg 76%
    01:00 -6°C° 0 mm 2 mps 635 mmHg 74%
    02:00 -6°C° 0 mm 2 mps 635 mmHg 74%
    03:00 -6°C° 0 mm 2 mps 634 mmHg 74%
    04:00 -6°C° 0 mm 2 mps 634 mmHg 74%
    05:00 -6°C° 0 mm 2 mps 634 mmHg 74%
    06:00 -6°C° 0 mm 2 mps 634 mmHg 75%
    07:00 -6°C° 0 mm 2 mps 634 mmHg 75%
    08:00 -4°C° 0 mm 2 mps 634 mmHg 71%
    09:00 -3°C° 0 mm 2 mps 634 mmHg 67%
    10:00 -2°C° 0 mm 2 mps 635 mmHg 63%
    11:00 -1°C° 0 mm 2 mps 635 mmHg 60%
    12:00 +2°C° 0 mm 1 mps 636 mmHg 57%
    13:00 +3°C° 0 mm 1 mps 636 mmHg 54%
    14:00 +2°C° 0 mm 1 mps 636 mmHg 60%
    15:00 +1°C° 0 mm 1 mps 636 mmHg 66%
    16:00 0°C° 0 mm 1 mps 636 mmHg 72%
    17:00 -1°C° 0 mm 1 mps 636 mmHg 75%
    18:00 -2°C° 0 mm 1 mps 637 mmHg 78%
    19:00 -3°C° 0 mm 1 mps 637 mmHg 81%
    20:00 -3°C° 0 mm 1 mps 637 mmHg 79%
    21:00 -3°C° 0 mm 1 mps 638 mmHg 78%
    22:00 -5°C° 0 mm 2 mps 638 mmHg 76%
    23:00 -5°C° 0 mm 2 mps 638 mmHg 75%

    Tomorrow, 21 November, Wednesday

    Time Temperature Precipitation Wind Pressure Humidity
    00:00 -4°C° 0 mm 2 mps 638 mmHg 73%
    01:00 -4°C° 0 mm 2 mps 638 mmHg 71%
    02:00 -4°C° 0 mm 2 mps 638 mmHg 70%
    03:00 -4°C° 0 mm 2 mps 639 mmHg 69%
    04:00 -4°C° 0 mm 2 mps 639 mmHg 68%
    05:00 -4°C° 0 mm 2 mps 639 mmHg 67%
    06:00 -4°C° 0 mm 2 mps 639 mmHg 65%
    07:00 -4°C° 0 mm 2 mps 639 mmHg 64%
    08:00 -3°C° 0 mm 2 mps 640 mmHg 61%
    09:00 +1°C° 0 mm 1 mps 640 mmHg 57%
    10:00 +2°C° 0 mm 1 mps 641 mmHg 53%
    11:00 +3°C° 0 mm 1 mps 641 mmHg 54%
    12:00 +4°C° 0 mm 1 mps 641 mmHg 54%
    13:00 +5°C° 0 mm 1 mps 642 mmHg 55%
    14:00 +4°C° 0 mm 1 mps 641 mmHg 61%
    15:00 +3°C° 0 mm 1 mps 641 mmHg 68%
    16:00 +2°C° 0 mm 1 mps 641 mmHg 75%
    17:00 +1°C° 0 mm 1 mps 642 mmHg 77%
    18:00 0°C° 0 mm 1 mps 642 mmHg 79%
    19:00 -1°C° 0 mm 1 mps 642 mmHg 81%
    20:00 -1°C° 0 mm 1 mps 642 mmHg 81%
    21:00 0°C° 0 mm 1 mps 643 mmHg 81%
    22:00 0°C° 0 mm 1 mps 643 mmHg 80%
    23:00 0°C° 0.1 mm 1 mps 643 mmHg 81%

    Day after tomorrow, 22 November, Thursday

    Time Temperature Precipitation Wind Pressure Humidity
    00:00 0°C° 0.1 mm 1 mps 643 mmHg 82%
    01:00 0°C° 0.1 mm 1 mps 643 mmHg 83%
    02:00 0°C° 0.1 mm 1 mps 643 mmHg 84%
    03:00 0°C° 0.1 mm 1 mps 643 mmHg 85%
    04:00 0°C° 0.1 mm 1 mps 644 mmHg 86%
    05:00 -1°C° 0.1 mm 0 mps 644 mmHg 87%
    06:00 -1°C° 0.1 mm 0 mps 644 mmHg 88%
    07:00 -1°C° 0.1 mm 0 mps 644 mmHg 89%
    08:00 0°C° 0 mm 0 mps 644 mmHg 85%
    09:00 +1°C° 0 mm 0 mps 645 mmHg 81%
    10:00 +2°C° 0 mm 0 mps 645 mmHg 76%
    11:00 +4°C° 0 mm 1 mps 646 mmHg 74%
    12:00 +5°C° 0 mm 1 mps 646 mmHg 71%
    13:00 +5°C° 0 mm 1 mps 646 mmHg 68%
    14:00 +4°C° 0 mm 1 mps 646 mmHg 73%
    15:00 +3°C° 0 mm 1 mps 646 mmHg 79%
    16:00 +1°C° 0 mm 0 mps 646 mmHg 84%
    17:00 +2°C° 0 mm 1 mps 646 mmHg 86%
    18:00 +1°C° 0 mm 1 mps 646 mmHg 88%
    19:00 0°C° 0 mm 1 mps 646 mmHg 90%
    20:00 0°C° 0 mm 1 mps 646 mmHg 89%
    21:00 0°C° 0 mm 1 mps 646 mmHg 88%
    22:00 -1°C° 0 mm 1 mps 646 mmHg 88%
    23:00 -1°C° 0 mm 1 mps 646 mmHg 87%

    23 November, Friday

    Time Temperature Precipitation Wind Pressure Humidity
    00:00 -1°C° 0 mm 1 mps 647 mmHg 85%
    01:00 -1°C° 0 mm 1 mps 647 mmHg 84%
    02:00 -1°C° 0 mm 1 mps 647 mmHg 84%
    03:00 -1°C° 0 mm 1 mps 647 mmHg 83%
    04:00 -1°C° 0 mm 1 mps 647 mmHg 82%
    05:00 -1°C° 0 mm 1 mps 647 mmHg 82%
    06:00 -1°C° 0 mm 1 mps 647 mmHg 82%
    07:00 -1°C° 0 mm 1 mps 647 mmHg 81%
    08:00 0°C° 0 mm 1 mps 647 mmHg 77%
    09:00 +1°C° 0 mm 1 mps 648 mmHg 73%
    10:00 +3°C° 0 mm 1 mps 648 mmHg 69%
    11:00 +4°C° 0 mm 1 mps 648 mmHg 66%
    12:00 +5°C° 0 mm 1 mps 648 mmHg 63%
    13:00 +6°C° 0 mm 1 mps 648 mmHg 60%
    14:00 +5°C° 0 mm 1 mps 647 mmHg 66%
    15:00 +4°C° 0 mm 1 mps 647 mmHg 72%
    16:00 +2°C° 0 mm 2 mps 647 mmHg 77%
    17:00 +1°C° 0 mm 2 mps 646 mmHg 78%
    18:00 +1°C° 0 mm 2 mps 646 mmHg 79%
    19:00 -1°C° 0 mm 2 mps 646 mmHg 80%
    20:00 -1°C° 0 mm 2 mps 645 mmHg 79%
    21:00 -1°C° 0 mm 2 mps 645 mmHg 79%
    22:00 -1°C° 0 mm 2 mps 645 mmHg 78%
    23:00 -1°C° 0 mm 2 mps 644 mmHg 78%

    24 November, Saturday

    Time Temperature Precipitation Wind Pressure Humidity
    00:00 -1°C° 0 mm 2 mps 643 mmHg 78%
    01:00 -1°C° 0 mm 2 mps 643 mmHg 78%
    02:00 -1°C° 0 mm 2 mps 642 mmHg 78%
    03:00 +1°C° 0 mm 2 mps 642 mmHg 77%
    04:00 +1°C° 0 mm 2 mps 641 mmHg 77%
    05:00 +1°C° 0 mm 2 mps 641 mmHg 77%
    06:00 +1°C° 0 mm 2 mps 640 mmHg 77%
    07:00 +1°C° 0 mm 2 mps 640 mmHg 76%
    08:00 +2°C° 0.1 mm 2 mps 640 mmHg 77%
    09:00 +2°C° 0.1 mm 2 mps 641 mmHg 77%
    10:00 +3°C° 0.1 mm 2 mps 641 mmHg 77%
    11:00 +3°C° 0.5 mm 2 mps 641 mmHg 80%
    12:00 +3°C° 0.5 mm 2 mps 642 mmHg 84%
    13:00 +3°C° 0.5 mm 2 mps 642 mmHg 87%
    14:00 +2°C° 0.6 mm 2 mps 642 mmHg 89%
    15:00 +2°C° 0.6 mm 2 mps 642 mmHg 91%
    16:00 +2°C° 0.6 mm 2 mps 642 mmHg 93%
    17:00 +1°C° 0.2 mm 2 mps 642 mmHg 93%
    18:00 +1°C° 0.2 mm 2 mps 642 mmHg 93%
    19:00 +1°C° 0.2 mm 1 mps 642 mmHg 94%
    20:00 +1°C° 0.2 mm 1 mps 642 mmHg 94%
    21:00 +1°C° 0.2 mm 1 mps 642 mmHg 94%
    22:00 +1°C° 0.2 mm 1 mps 643 mmHg 94%
    23:00 +1°C° 0.1 mm 1 mps 643 mmHg 94%

    25 November, Sunday

    Time Temperature Precipitation Wind Pressure Humidity
    00:00 0°C° 0.1 mm 1 mps 643 mmHg 94%
    01:00 0°C° 0.1 mm 1 mps 642 mmHg 95%
    02:00 0°C° 0.1 mm 1 mps 642 mmHg 95%
    03:00 0°C° 0.1 mm 1 mps 642 mmHg 95%
    04:00 0°C° 0.1 mm 1 mps 642 mmHg 95%
    05:00 -1°C° 0 mm 1 mps 642 mmHg 95%
    06:00 -1°C° 0 mm 1 mps 642 mmHg 95%
    07:00 -1°C° 0 mm 1 mps 642 mmHg 95%
    08:00 0°C° 0 mm 1 mps 642 mmHg 91%
    09:00 +1°C° 0 mm 1 mps 642 mmHg 88%
    10:00 +2°C° 0 mm 1 mps 642 mmHg 84%
    11:00 +3°C° 0 mm 1 mps 642 mmHg 80%
    12:00 +3°C° 0 mm 1 mps 642 mmHg 76%
    13:00 +4°C° 0 mm 1 mps 642 mmHg 72%
    14:00 +4°C° 0 mm 1 mps 641 mmHg 76%
    15:00 +3°C° 0 mm 1 mps 641 mmHg 80%
    16:00 +2°C° 0 mm 1 mps 640 mmHg 84%
    17:00 +1°C° 0 mm 1 mps 640 mmHg 85%
    18:00 0°C° 0 mm 1 mps 640 mmHg 86%
    19:00 -1°C° 0 mm 1 mps 640 mmHg 87%
    20:00 -1°C° 0 mm 1 mps 640 mmHg 86%
    21:00 -1°C° 0 mm 1 mps 639 mmHg 86%
    22:00 -1°C° 0 mm 1 mps 639 mmHg 85%
    23:00 -1°C° 0 mm 1 mps 639 mmHg 84%
    Show more